GFSGL_prec_cloud_336.txt.gz
Cloud_Cover
5 5 5 5 5 12 86 51 78 87 75 100 94 100 100 100 100 99 98 87 66 63 84 22 33 40 8 3 5 4 3 5 46 100 100 100 100 100 99 67 5 2 1
46 69 98 100 93 92 100 100 100 100 100 100 74 100 100 100 100 100 100 96 61 98 71 74 100 100 98 98 100 100 98 5 5 5 0 0 2 28 49 87 100 36 5
100 100 100 100 100 100 100 100 100 100 100 100 100 100 98 62 99 50 25 86 36 8 17 5 94 100 100 94 42 100 100 100 52 1 1 0 0 0 0 1 4 5 26
100 100 100 100 100 100 100 100 100 100 100 100 100 100 100 100 99 96 94 10 4 1 3 1 1 0 55 96 100 100 100 94 41 0 0 0 0 2 4 4 0 5 5
100 100 100 100 100 100 100 100 100 100 100 100 100 100 98 100 100 100 100 100 100 29 19 5 8 29 28 12 37 5 5 5 5 5 0 0 4 5 5 31 85 37 5
100 100 100 100 100 100 100 100 100 100 100 100 100 100 100 100 100 100 100 100 95 92 39 100 84 6 0 5 5 5 5 5 5 5 5 5 5 99 76 100 100 100 84
100 100 100 100 100 100 100 100 100 100 100 100 100 100 100 100 100 100 100 100 100 75 46 5 6 1 4 5 4 4 5 5 5 5 40 23 13 36 100 70 99 100 100
100 100 100 100 100 100 100 100 100 100 100 100 100 100 100 100 100 100 69 100 82 37 24 5 5 5 5 1 0 3 5 5 5 5 14 6 52 50 100 100 100 100 100
100 100 100 100 100 100 100 100 100 100 100 100 100 100 100 45 35 82 100 62 35 35 55 32 5 5 5 0 0 5 5 5 5 5 5 12 39 100 100 100 100 100 100
100 100 100 100 100 100 100 100 100 100 96 100 24 27 62 13 11 5 5 5 16 77 88 73 26 5 5 0 0 4 5 5 5 5 10 54 100 100 100 100 100 100 100
85 96 100 100 100 100 100 100 100 77 83 77 65 64 67 97 96 12 6 5 31 79 87 53 74 6 1 0 0 2 5 3 5 54 98 100 100 100 100 100 100 100 100
100 100 100 100 100 100 100 100 100 84 33 16 5 6 32 99 69 97 35 31 83 60 5 6 5 2 0 0 0 5 1 5 87 99 100 100 100 100 100 100 100 100 100
100 100 100 100 100 100 100 100 100 100 100 100 94 95 26 96 100 95 96 75 30 5 5 4 0 3 5 5 5 1 5 84 100 80 100 100 100 100 100 100 100 100 100
100 100 100 100 100 100 100 100 100 100 100 97 99 63 99 85 98 100 100 76 49 20 32 4 0 2 6 14 34 84 85 100 100 91 100 100 100 100 100 100 100 100 100
100 100 100 100 100 100 100 100 100 100 96 100 100 100 100 100 100 100 94 42 5 2 0 2 5 5 5 2 5 27 61 86 100 100 100 100 100 100 100 100 100 100 100
100 100 100 78 91 55 47 23 76 82 99 100 100 100 100 100 94 43 5 5 0 0 0 4 5 5 1 5 5 5 59 100 100 100 100 100 100 100 100 100 100 100 100
50 46 27 24 68 72 33 97 99 99 10 12 6 82 100 89 11 5 0 0 0 0 5 5 5 4 5 5 5 5 65 100 100 100 100 100 100 100 100 100 100 100 100
10 34 3 43 98 20 77 40 24 99 93 91 40 3 1 0 0 0 0 0 4 55 5 5 5 5 5 5 5 28 100 100 100 100 100 100 100 100 100 100 100 100 100
2 9 23 14 2 13 9 62 78 70 5 5 6 27 23 16 5 5 4 16 5 5 39 40 17 6 5 5 6 29 100 100 100 100 100 100 100 100 100 100 100 100 100
5 27 44 1 6 17 28 84 65 5 5 5 5 5 5 5 5 79 87 78 86 93 98 100 92 30 5 5 5 75 100 100 100 100 100 100 100 100 100 100 100 100 100
3 4 77 5 29 100 83 88 5 5 5 5 5 13 5 5 5 51 99 100 100 100 100 100 98 16 5 5 7 98 100 100 100 100 100 100 99 100 100 100 100 100 100
5 4 7 8 27 53 14 18 5 5 5 5 5 65 5 9 82 100 100 100 100 100 100 100 100 65 5 0 53 100 100 100 100 100 99 91 100 100 100 100 100 100 100
6 42 11 40 71 23 27 21 53 63 66 74 90 99 100 94 94 98 99 90 98 100 100 100 100 81 5 2 57 100 100 100 67 100 99 67 99 100 100 100 100 100 100
5 9 100 47 63 95 83 100 99 81 36 39 99 72 82 97 97 88 98 97 100 96 99 100 100 68 5 4 34 100 100 87 85 100 100 99 100 100 100 100 100 100 100
5 81 100 28 91 100 100 100 100 100 99 95 100 100 91 100 98 100 100 100 100 88 97 100 91 7 4 4 44 100 76 100 73 96 86 100 100 100 100 100 100 100 100
88 84 100 100 100 100 100 100 100 100 100 100 100 100 100 100 100 100 100 100 96 99 100 88 5 5 4 4 43 53 72 99 74 75 88 100 100 100 100 100 100 100 100

GFSGL_prec_cloud_339.txt.gz
Cloud_Cover
87 76 38 37 12 5 4 5 8 7 36 49 48 83 88 96 97 96 100 100 99 98 91 100 91 69 31 3 5 5 54 80 50 46 99 100 76 22 82 91 93 99 72
100 100 100 100 90 66 75 66 80 75 94 75 91 100 100 100 100 100 100 100 97 98 65 63 85 100 100 99 3 5 5 31 30 5 62 100 100 100 78 7 23 16 22
100 100 100 100 90 85 94 100 100 100 100 100 100 100 100 100 100 100 90 100 100 100 100 93 53 14 96 12 60 20 2 18 13 1 2 12 18 71 100 100 100 96 21
100 100 100 100 100 100 100 100 100 100 100 100 100 100 100 100 100 100 100 100 100 100 100 100 100 100 100 100 95 75 90 5 5 54 4 16 6 2 2 36 78 100 42
100 100 100 100 100 100 100 100 100 100 100 100 100 100 100 100 100 100 100 95 70 100 100 100 100 96 100 100 92 87 39 97 77 99 92 20 0 0 2 2 5 5 0
100 100 100 100 100 100 100 100 100 100 100 100 100 100 100 100 100 100 100 100 91 92 100 100 100 100 100 100 100 100 100 98 64 5 5 5 5 5 5 5 5 6 46
100 100 100 100 100 100 100 100 100 100 100 100 100 100 100 100 100 100 100 100 100 100 100 100 100 100 100 100 73 6 4 3 5 5 5 5 5 22 5 21 94 90 74
99 100 100 100 100 100 100 100 100 100 100 100 100 100 100 100 100 99 100 82 100 100 79 100 100 100 75 12 5 5 5 5 5 5 5 5 5 3 43 70 83 90 100
83 95 96 100 100 100 100 100 100 100 100 100 100 92 100 100 100 100 100 100 52 66 31 98 100 100 57 5 5 0 5 5 5 5 5 3 2 61 18 95 77 100 98
100 98 79 100 100 100 100 100 100 100 100 100 100 100 100 81 92 89 86 54 48 91 64 100 88 100 68 5 4 0 0 5 5 3 2 12 43 8 61 100 100 100 100
88 89 99 100 100 100 100 100 100 100 94 100 98 100 96 47 64 42 6 30 94 96 70 92 100 16 5 4 0 0 2 0 0 5 62 86 63 65 100 100 100 100 100
88 99 99 100 100 100 100 100 100 100 98 100 100 100 100 100 90 18 83 100 54 29 5 75 9 5 2 0 0 1 0 0 5 47 97 95 58 45 91 99 100 100 94
100 100 100 100 100 100 100 100 100 100 100 100 100 100 100 100 100 90 84 17 78 52 8 5 1 0 0 1 5 5 5 5 69 98 64 65 75 93 97 100 100 72 91
100 100 100 100 100 100 100 100 100 100 100 100 64 65 97 100 100 100 100 100 100 100 61 5 5 0 1 21 11 32 58 18 75 78 93 79 100 100 100 100 91 94 100
100 100 100 100 100 100 100 100 100 100 92 100 96 63 88 81 96 90 100 98 83 97 6 4 0 8 49 55 29 35 11 56 61 71 88 100 100 100 88 97 99 100 100
100 100 100 100 100 100 70 100 100 64 67 26 10 41 86 28 7 1 2 1 4 0 1 1 5 41 65 60 11 25 37 67 64 93 100 100 100 96 100 100 100 100 100
100 32 64 9 6 6 5 29 35 61 5 2 5 0 3 19 0 0 0 1 0 0 2 6 58 59 60 67 47 20 40 70 73 100 100 100 100 100 100 100 100 100 100
12 12 4 88 100 73 27 3 36 94 54 70 54 22 4 0 0 0 3 5 5 68 27 74 92 89 94 97 74 30 44 66 100 100 100 100 100 100 100 100 100 100 100
58 85 91 53 24 19 4 61 50 98 86 24 5 18 0 0 1 3 4 3 12 93 100 100 100 100 100 100 89 6 30 77 100 100 100 100 100 100 100 100 100 100 100
9 6 38 0 5 33 33 50 16 86 5 5 5 11 3 4 3 5 51 43 98 100 100 100 100 100 100 100 98 50 44 100 100 100 100 100 100 100 100 100 100 100 100
7 30 47 5 5 5 5 29 97 5 6 5 17 13 5 3 5 5 89 100 100 100 83 89 100 100 100 100 88 14 18 100 100 100 100 100 100 100 100 100 100 100 100
5 5 11 16 45 95 100 95 84 100 39 89 74 100 78 6 12 71 100 91 85 96 100 100 100 100 100 100 84 31 83 100 100 100 100 100 100 100 100 100 100 100 100
77 16 7 87 92 95 94 96 71 100 100 100 100 100 86 95 98 100 95 100 94 86 89 98 100 100 100 100 80 22 99 100 100 100 100 86 97 100 100 100 100 100 100
5 9 26 71 100 100 100 100 99 100 100 100 100 100 100 100 100 100 100 100 96 62 84 43 85 100 100 97 67 9 100 100 100 100 100 99 95 100 100 100 100 100 100
5 24 89 98 98 100 100 100 100 100 100 100 100 100 100 100 100 100 100 100 100 29 45 53 72 100 100 84 40 44 100 100 100 100 100 93 99 100 100 100 100 100 100
36 39 96 100 85 79 100 100 100 100 100 100 100 100 100 100 100 100 100 100 99 94 92 82 100 82 96 68 39 9 100 100 95 98 100 100 100 100 100 100 100 100 100

GFSGL_prec_cloud_342.txt.gz
Cloud_Cover
39 92 28 83 95 98 85 48 44 29 20 12 5 5 24 5 18 34 78 85 99 95 99 83 87 100 100 100 100 100 98 19 7 18 0 0 1 0 0 0 5 35 5
42 60 62 96 98 100 100 100 99 97 88 6 45 54 82 94 100 100 100 100 100 100 100 100 100 99 87 100 100 36 64 32 5 74 74 43 70 6 4 0 0 6 25
96 95 100 100 100 100 95 100 99 100 100 100 98 97 99 91 100 100 100 100 100 100 100 100 100 100 100 100 97 99 100 100 75 24 14 71 96 98 31 19 14 0 2
100 90 87 100 100 99 90 100 93 97 100 100 100 100 100 100 100 100 100 100 100 100 100 100 100 100 100 100 100 100 100 100 100 90 80 90 98 79 27 24 28 5 1
100 100 96 100 100 99 95 100 100 100 100 100 100 100 100 100 100 100 100 100 100 100 100 100 100 100 100 100 100 100 100 100 100 100 100 90 90 100 99 41 66 89 100
100 100 100 100 100 100 100 100 100 100 100 100 100 100 100 100 100 100 100 100 100 100 100 100 100 100 100 100 100 100 100 100 100 100 100 100 71 6 7 5 5 3 5
100 100 91 100 100 100 100 100 100 100 100 100 100 100 100 100 100 100 100 100 100 100 100 100 100 100 100 100 100 100 100 100 100 98 82 35 4 3 5 5 5 5 9
100 100 100 95 100 100 100 100 100 100 100 100 100 100 100 100 100 100 100 100 100 100 100 100 100 100 100 100 100 100 100 100 100 62 2 0 5 4 5 6 62 58 21
100 100 100 100 100 100 100 100 100 100 100 100 100 98 100 100 100 100 100 100 100 100 100 100 100 72 83 100 100 100 44 13 0 0 0 0 0 0 7 78 30 5 50
77 100 100 100 99 100 100 100 100 100 100 100 80 67 64 100 100 100 100 99 100 100 100 100 98 99 100 82 35 5 5 0 0 0 0 0 0 7 84 94 22 5 63
100 98 19 25 90 100 100 100 100 100 88 60 100 77 99 100 97 98 63 9 26 100 100 99 84 64 62 30 27 5 2 0 0 0 0 1 25 100 88 5 5 10 98
100 100 100 100 98 100 100 100 100 96 95 100 100 100 100 100 100 100 100 63 100 100 100 98 100 99 52 24 1 0 0 0 3 5 4 40 14 3 77 5 1 61 93
100 100 100 100 100 100 100 100 100 99 100 100 100 100 100 100 97 100 100 100 100 94 91 88 62 88 93 5 5 5 5 5 5 5 5 3 78 7 5 4 65 45 100
100 100 100 100 100 100 100 100 100 100 95 100 100 100 100 99 90 84 88 58 73 37 15 10 100 85 95 66 12 14 40 34 5 5 9 5 4 1 8 66 100 59 100
100 100 100 100 100 100 100 100 100 100 100 100 92 88 77 18 70 84 4 5 22 79 94 10 0 0 0 64 77 5 5 5 5 15 31 2 2 33 34 99 86 100 100
81 100 29 19 100 52 58 84 82 18 7 4 7 41 0 0 0 1 0 0 0 0 0 0 0 1 57 84 6 5 5 5 5 5 5 5 39 61 99 65 98 100 100
99 6 8 5 100 8 4 4 0 33 0 1 0 0 9 0 0 0 0 0 0 0 0 0 1 43 34 5 5 5 5 5 4 69 5 63 62 93 99 100 96 99 100
30 53 16 10 5 13 54 72 61 22 5 4 40 3 1 15 5 0 0 0 1 2 5 5 38 50 67 78 5 5 5 3 4 48 55 85 89 96 98 100 100 100 100
50 89 88 100 10 31 23 19 20 51 5 52 39 40 31 5 45 49 5 5 5 16 60 29 45 98 48 5 5 5 20 5 16 18 100 87 97 100 86 100 100 100 100
5 4 2 0 0 1 57 15 25 5 78 89 5 78 62 91 74 7 42 94 50 5 89 76 11 5 25 37 5 99 94 5 5 99 99 92 99 100 100 86 100 100 100
5 5 5 5 5 3 40 4 6 64 100 93 19 57 100 43 67 33 63 41 97 100 36 52 5 5 5 12 85 100 16 2 47 100 95 79 100 100 100 99 100 100 100
5 11 100 87 20 12 69 83 63 79 100 83 52 91 95 96 100 100 100 100 100 100 86 92 84 5 5 51 68 43 5 3 99 100 100 65 100 91 100 100 100 100 100
5 62 100 68 42 73 21 18 34 57 68 100 97 99 43 96 100 100 100 100 100 100 100 100 100 22 5 75 94 100 10 14 100 99 96 79 100 100 86 100 100 100 100
5 5 5 5 14 28 37 32 78 66 97 100 100 100 100 100 100 100 100 100 100 100 100 100 100 67 5 61 100 100 5 64 98 98 85 93 100 97 98 100 100 100 100
5 5 8 55 42 96 75 100 100 100 100 100 100 100 100 100 100 100 100 100 100 100 100 100 99 45 56 96 93 14 5 99 96 100 95 29 100 91 100 100 100 100 100
41 100 100 88 56 96 55 100 100 100 100 100 100 100 100 100 100 100 100 100 100 100 100 71 99 28 99 52 6 5 5 98 82 100 63 5 17 98 100 100 100 100 100

GFSGL_prec_cloud_345.txt.gz
Cloud_Cover
100 59 27 14 39 33 14 28 39 64 53 57 56 24 26 37 37 32 56 35 69 80 97 100 100 99 100 92 99 97 100 100 100 99 74 46 10 26 33 38 8 5 22
100 100 84 24 38 6 7 13 5 7 27 39 52 88 97 99 85 92 99 100 100 100 100 100 100 100 100 100 100 100 98 98 100 100 100 77 72 98 90 78 44 15 49
100 100 100 100 60 98 97 100 100 80 57 67 95 99 100 99 99 100 100 98 100 100 100 100 97 85 93 100 100 100 100 100 100 100 100 100 100 91 76 15 5 43 76
100 100 100 100 100 96 89 82 46 55 90 86 75 79 100 100 100 100 100 100 100 100 100 100 100 100 100 100 100 100 100 99 97 95 89 99 100 100 100 100 84 80 44
100 100 100 100 100 100 100 100 100 100 96 84 98 100 98 73 100 100 100 100 100 100 100 100 100 100 100 100 100 100 100 100 100 100 100 100 100 100 100 100 100 100 80
100 100 100 100 100 95 100 100 100 100 100 100 100 100 100 100 100 100 100 100 100 100 100 100 100 100 100 100 100 100 100 100 100 100 100 100 100 100 100 75 15 99 59
100 100 100 100 97 26 87 93 100 100 100 100 100 100 100 100 100 100 100 100 100 100 100 100 100 100 100 100 100 100 100 100 100 100 100 100 100 99 78 94 100 64 17
100 100 100 100 100 100 94 100 96 100 100 100 100 100 100 100 100 100 100 100 100 100 100 100 100 100 100 100 100 100 100 100 100 100 100 86 56 53 17 10 5 5 5
100 100 100 100 100 100 100 100 100 100 100 100 100 100 100 100 99 100 100 100 97 55 12 49 100 100 100 100 100 100 100 100 77 60 46 38 5 0 4 5 5 5 5
100 100 100 100 98 100 100 100 97 98 81 100 85 48 85 87 78 91 57 88 100 100 99 92 86 100 99 98 59 35 61 67 38 41 28 89 49 2 2 3 1 9 75
100 100 100 100 100 100 93 98 100 97 83 33 38 63 96 77 41 77 77 32 67 100 93 100 100 100 96 98 62 34 5 5 5 5 3 0 0 0 2 77 94 76 1
100 100 100 100 100 100 100 100 100 100 100 87 100 98 76 98 100 100 95 72 70 94 100 100 100 99 74 32 5 1 3 5 5 2 3 5 0 5 82 8 0 0 2
100 100 100 100 100 100 100 100 100 100 100 100 100 90 44 71 87 100 100 100 100 100 100 100 60 9 5 0 4 4 5 5 5 5 5 0 5 22 6 1 0 0 30
100 100 100 100 100 100 100 86 100 100 100 100 100 100 100 100 100 97 86 36 10 2 4 5 5 3 4 0 3 5 5 5 5 5 0 3 5 2 0 0 5 56 100
100 100 85 98 95 85 50 62 86 60 46 90 87 56 53 17 3 1 0 0 0 1 5 4 0 0 0 0 1 5 2 0 0 0 0 0 0 4 0 4 99 100 94
6 7 5 5 5 51 57 9 70 24 0 0 66 0 0 0 0 0 0 0 0 0 0 0 0 0 0 1 7 5 5 5 5 4 2 0 5 1 2 89 100 87 100
9 84 76 5 0 0 5 5 0 10 13 0 0 0 13 0 3 0 1 21 27 70 97 60 5 5 26 61 94 5 5 5 5 5 1 0 0 0 75 100 100 99 100
56 79 5 14 5 5 43 100 83 43 3 0 66 6 3 0 2 6 14 5 5 5 20 52 96 17 5 65 28 5 5 5 5 5 5 5 0 65 100 100 100 100 100
79 19 3 16 95 8 4 3 0 0 0 0 3 76 11 0 0 8 100 5 5 71 69 82 100 84 42 46 20 2 5 42 40 5 5 2 39 99 100 100 100 100 100
29 0 0 2 3 22 35 3 14 63 37 4 5 8 5 5 36 99 36 6 83 100 94 98 80 100 89 82 5 5 5 5 5 5 3 19 92 99 100 100 100 100 100
0 1 5 16 100 100 100 6 5 5 5 5 55 9 69 81 5 65 97 67 56 98 53 100 96 77 100 46 5 5 5 5 5 5 7 76 99 100 100 100 100 100 100
5 5 10 5 5 5 5 8 5 41 94 26 72 100 100 100 100 100 90 100 100 100 100 99 87 100 100 43 5 7 32 5 5 5 67 100 92 100 100 100 100 100 100
5 8 12 5 5 5 30 57 54 17 87 100 100 96 92 100 63 100 99 92 100 100 100 100 100 99 100 56 5 5 8 27 5 9 98 99 88 100 100 88 100 100 100
5 5 5 25 87 89 78 8 53 49 79 82 81 100 100 100 100 100 100 100 100 100 100 100 100 100 100 99 36 60 5 53 5 41 92 84 100 100 100 92 100 96 100
5 5 10 6 5 89 93 100 99 100 100 100 100 100 100 100 100 100 100 100 100 100 100 100 100 100 100 63 87 8 5 5 5 30 60 28 91 100 100 98 99 100 100
60 5 54 96 100 100 100 100 98 100 100 100 100 100 100 100 100 100 100 100 100 100 100 100 100 100 100 76 5 5 5 5 5 37 32 7 54 97 95 95 100 100 100